This is the latest recevied weather packets stored in our database for station/object KD4WXI. If no packets are shown the sender has not sent any weather packets the latest 10 day(s).
| Time | Temp. | Humidity | Pressure | Rain* | Wind** | Luminosity | Snow |
|---|---|---|---|---|---|---|---|
| 1778002583 | 27.22° C | 35% | 1016.2 hPa | 0 mm | - | 764 W/m² | - |
| 1778002280 | 26.11° C | 38% | 1016.3 hPa | 0 mm | - | 749 W/m² | - |
| 1778001978 | 25.56° C | 39% | 1016.5 hPa | 0 mm | - | 781 W/m² | - |
| 1778001674 | 26.11° C | 40% | 1016.4 hPa | 0 mm | - | 784 W/m² | - |
| 1778001369 | 26.11° C | 38% | 1016.5 hPa | 0 mm | - | 772 W/m² | - |
| 1778001066 | 26.11° C | 40% | 1016.4 hPa | 0 mm | - | 775 W/m² | - |
| 1778000763 | 25.56° C | 41% | 1016.5 hPa | 0 mm | - | 730 W/m² | - |
| 1778000459 | 26.11° C | 40% | 1016.8 hPa | 0 mm | - | 714 W/m² | - |
| 1778000154 | 26.11° C | 40% | 1016.6 hPa | 0 mm | - | 782 W/m² | - |
| 1777999850 | 25.56° C | 43% | 1016.9 hPa | 0 mm | - | 773 W/m² | - |
| 1777999546 | 25.56° C | 42% | 1016.9 hPa | 0 mm | - | 668 W/m² | - |
| 1777999244 | 25° C | 42% | 1016.8 hPa | 0 mm | - | 682 W/m² | - |
| 1777998943 | 25° C | 41% | 1016.9 hPa | 0 mm | - | 629 W/m² | - |
| 1777998639 | 25.56° C | 43% | 1016.9 hPa | 0 mm | - | 602 W/m² | - |
| 1777998338 | 25° C | 45% | 1016.9 hPa | 0 mm | - | 582 W/m² | - |
| 1777998035 | 25.56° C | 45% | 1016.9 hPa | 0 mm | - | 606 W/m² | - |
| 1777997732 | 25° C | 45% | 1017 hPa | 0 mm | - | 624 W/m² | - |
| 1777997429 | 25° C | 44% | 1017 hPa | 0 mm | - | 650 W/m² | - |
| 1777997127 | 25.56° C | 47% | 1017 hPa | 0 mm | - | 627 W/m² | - |
| 1777996824 | 24.44° C | 45% | 1017.3 hPa | 0 mm | - | 662 W/m² | - |
| 1777996520 | 25° C | 46% | 1017.1 hPa | 0 mm | - | 656 W/m² | - |
| 1777996217 | 25° C | 47% | 1017.1 hPa | 0 mm | - | 673 W/m² | - |
| 1777995913 | 25° C | 47% | 1016.9 hPa | 0 mm | - | 644 W/m² | - |
| 1777995609 | 24.44° C | 48% | 1017.2 hPa | 0 mm | - | 615 W/m² | - |
| 1777995307 | 24.44° C | 49% | 1017.2 hPa | 0 mm | - | 602 W/m² | - |
* Rain latest hour (hover to see other rain measurements)
** Current wind speed in m/s (hover to see current wind gust speed)